Tracking 30074 objects as of 14-Jan-2025
HD Live streaming from Space Station
objects crossing your sky now

METEOR 1-23

Track METEOR 1-23 now!
10-day predictions
METEOR 1-23 is classified as:


NORAD ID: 8519
Int'l Code: 1975-124A
Perigee: 852.3 km
Apogee: 872.2 km
Inclination: 81.2 °
Period: 102.0 minutes
Semi major axis: 7233 km
RCS: 4.3645 m2 (large)
Launch date: December 25, 1975
Source: Commonwealth of Independent States (former USSR) (CIS)
Launch site: PLESETSK MISSILE AND SPACE COMPLEX (PKMTR)
Your satellite tracking list
Your tracking list is empty




NASA's NSSDC Master Catalog

Two Line Element Set (TLE):
1 08519U 75124A   25013.21734294  .00000109  00000-0  53462-4 0  9999
2 08519  81.2436 271.6479 0013733   1.4598 358.6611 14.11237985523549
Source of the keplerian elements: AFSPC